Jackpot Winner Texas Poker

Jackpot hanya dapat di beli di awal sebelum periode tersebut berjalan dan jika berhasil maka anda dapat melihat di sisi kiri bawah atau kiri atas akan terdapat notifikasi bahwa jackpot anda berhasil di beli.

Jika anda membeli jackpot di tengah permainan maka pembelian jackpot akan berlaku untuk periode selanjutnya.

Kini Telah hadir Jackpot SUPER ROYAL FLUSH

Kini Telah hadir Jackpot 2000 (khusus table VIP keatas).

Ikutilah global jackpot yang tersedia di system kami, dengan system jackpot terbaru dan pertama di indonesia, anda dapat membeli jackpot dengan harga 100 rupiah saja dan menangkan hadiahnya hingga puluhan juta rupiah.

Jackpot bukanlah suatu keharusan untuk dibeli, namun kami memberikan suatu fitur tambahan untuk member tercinta dari www.nagabetasia.net.

Terdapat tiga pilihan harga jackpot yang bisa anda beli yaitu :100,500,1000 dan 2000(khusus table VIP Keatas) rupiah.

Hadiah dari Multi jackpot system www.nagabetasia.net

  1. full house x 10 harga jackpot yang anda beli.
      (contoH:anda membeli 1000 maka:1000 X10 = 10.000)
  2. four of kind x 250 harga jackpot yang anda beli
      (contoH:anda membeli 1000 maka:1000 X250 = 250.000)
  3. Straight flush x 1200
      (contoH:anda membeli 1000 maka:1000 X1200 = 1.200.000)
  4. Royal flush x 10000 harga jackpot yang anda beli
      (contoH:anda membeli 1000 maka:1000 X10000 = 10.000.000)
  5. SUPER ROYAL FLUSH x 30000 harga jackpot yang anda beli
      (contoH:anda membeli 1000 maka:1000 X30000 = 30.000.000)

Note: Untuk mendapatkan jackpot di satu periode, pemain harus menyelesaikan permainan di periode tersebut, minimal 2 pemain. Jika semua pemain 'fold' jackpot tidak akan diturunkan.


Kondisi kartu

  1. full house adalah kondisi kartu dimana kartu anda dan kartu tengah dengan total 7 kartu bisa mendapatkan nilai 5 kartu dengan kombinasi 1 tris(three of kind) dan 1 pair, contoh 3 kartu 10 dan 2 kartu 5
  2. Four of kind adalah kondisi kartu dimana kartu anda dan kartu tengah dengan total 7 kartu bisa mendapatkan nilai 5 kartu dengan kombinasi 4 kartu yang sama jumlah dan 1 kartu apapun juga contoh anda mendapatkan 4 buah kartu angka 3 dan 1 kartu apapun.
  3. Straight flush adalah kondisi kartu dimana kartu anda dan kartu tengah dengan total 7 kartu bisa mendapatkan nilai 5 kartu dengan kombinasi seri / staright dengan kembang yang sama contoh : urutan kartu dari angka 5, 6, 7, 8 , 9 10 dengan kembang yg sama misalnya as hati
  4. Royal flush adalah kondisi kartu dimana kartu anda dan kartu tengah dengan total 7 kartu bisa mendapatkan nilai 5 kartu dengan kombinasi seri / staright dengan kembang yang sama tetapi kartu tersebut haruslah dimulai dari 10. contoh 10, Queen, Jack, King dan aces dengan kembang yang sama
  5. Super Royal flush adalah kondisi kartu dimana Kedua kartu anda digabung dengan 3 kartu pertama meja haruslah royal flush. contoh kartu anda10,Queen dan 3 kartu pertama meja adalah Jack, King dan aces dengan kembang yang sama

Demikian adalah penjelasan dari Multi Jackpot www.nagabetasia.net terima kasih dan selamat bermain salam hoki dari kami


Jackpot Winner

TOP SUPER ROYAL FLUSH
No. Tanggal Nama Price Win
1 16/10 00:03 LONJOR33 Super Royal flush 3,000,000
2 15/10 22:45 BOKLI Super Royal flush 60,000,000
3 15/10 21:40 CEPOZ14 Super Royal flush 30,000,000
4 15/10 18:24 CANCORANG Super Royal flush 3,000,000
5 15/10 17:37 VODKAKING Super Royal flush 30,000,000
TOP ROYAL FLUSH
No. Tanggal Nama Price Win
1 16/10 04:46 PLGONESS Royal flush 5,000,000
2 16/10 04:22 F22EF3F8 Royal flush 1,000,000
3 16/10 04:08 E6E5060F Royal flush 5,000,000
4 16/10 04:07 BANTUBRO Royal flush 5,000,000
5 16/10 04:07 TIO2510 Royal flush 5,000,000
TOP STRAIGHT FLUSH
No. Tanggal Nama Price Win
1 16/10 04:55 WN519RDZ0X Straight Flush 2,400,000
2 16/10 04:52 SABU2M Straight Flush 1,200,000
3 16/10 04:51 CHANDD_ Straight Flush 600,000
4 16/10 04:50 GIBERAN15 Straight Flush 600,000
5 16/10 04:50 PELERNINA Straight Flush 2,400,000
LATEST JACKPOT
No. Tanggal Nama Price Win
1 16/10 04:59 PIERCE80 Full House 1,000
2 16/10 04:59 A7131605 Full House 5,000
3 16/10 04:59 IIMMAA Full House 2,000
4 16/10 04:59 BORIL86 Full House 5,000
5 16/10 04:59 SEPTIANT Full House 5,000
6 16/10 04:59 EA7D243B Full House 5,000
7 16/10 04:59 KOREK112 Full House 20,000
8 16/10 04:59 BAYAW201 Full House 2,000
9 16/10 04:59 BEN52 Full House 10,000
10 16/10 04:59 CN05 Full House 2,000
11 16/10 04:59 EMYL Full House 5,000
12 16/10 04:59 HEAY Full House 10,000
13 16/10 04:59 T4RIKM4NG7 Full House 2,000
14 16/10 04:59 D3W4A1 Full House 5,000
15 16/10 04:58 SISKA223 Full House 5,000
16 16/10 04:58 KOH_LUNG99 Full House 10,000
17 16/10 04:58 RUVI Full House 20,000
18 16/10 04:58 ANEN_ Full House 1,000
19 16/10 04:58 R0YAL12 Full House 10,000
20 16/10 04:58 GORGOM999 Full House 2,000
21 16/10 04:58 YAIXXXXX Full House 1,000
22 16/10 04:58 DBSTL5ENUE Full House 1,000
23 16/10 04:58 IYOY09 Full House 5,000
24 16/10 04:58 JAUN1256 Full House 10,000
25 16/10 04:58 GZ0JC5BZ8L Full House 500
26 16/10 04:58 AKUCUPU Full House 10,000
27 16/10 04:58 LIA7 Full House 10,000
28 16/10 04:58 TWI212 Four Of A Kind 125,000
29 16/10 04:58 SUPERJARW0 Full House 5,000
30 16/10 04:58 EXG3Q86BZN Full House 1,000
31 16/10 04:58 CU550N5 Full House 2,000
32 16/10 04:58 KEUNCANG_ Full House 5,000
33 16/10 04:58 ASRUL1145 Full House 5,000
34 16/10 04:58 B_N_N_007 Full House 2,000
35 16/10 04:58 TEMPUR84 Full House 2,000
36 16/10 04:58 MODAR1212 Full House 1,000
37 16/10 04:58 ZHABUZA Full House 5,000
38 16/10 04:58 D4ND1S3L0W Full House 2,000
39 16/10 04:58 FM2159 Full House 1,000
40 16/10 04:58 HOLIL99 Full House 5,000
41 16/10 04:58 CIKAUP02 Full House 2,000
42 16/10 04:58 BABEPQ Full House 2,000
43 16/10 04:58 BA_60_OES Full House 2,000
44 16/10 04:58 SILAJP Full House 2,000
45 16/10 04:58 SARGENT Full House 10,000
46 16/10 04:58 ALANSORI90 Four Of A Kind 250,000
47 16/10 04:58 RZKY555 Full House 5,000
48 16/10 04:58 RAJOGILO Full House 5,000
49 16/10 04:58 CHE1DP8XII Full House 5,000
50 16/10 04:58 SERI1111 Full House 1,000
Dewa.FM